Weather History for KMCC - January, 2013

Change the Weather History Date:

Thursday, January 31, 2013

  Actual Average (KMHR) Record (KMHR)
Temperature  
Mean Temperature 48 °F -  
Max Temperature 60 °F 53 °F 73 °F (2015)
Min Temperature 35 °F 37 °F 28 °F (2001)
Degree Days  
Heating Degree Days 18    
Moisture  
Dew Point 41 °F    
Average Humidity 79    
Maximum Humidity 100    
Minimum Humidity 51    
Precipitation  
Precipitation 0.00 in - - ()
Sea Level Pressure  
Sea Level Pressure 30.27 in    
Wind  
Wind Speed 2 mph (North)    
Max Wind Speed 7 mph    
Max Gust Speed -    
Visibility 9 miles    
Events      
Averages and records for this station are not official NWS values.
T = Trace of Precipitation, MM = Missing Value Source: NWS Daily Summary

Daily Weather History Graph

Daily Weather History Graph

Search for Another Location

Airport or City:

Trip Planner

Search our weather history database for the weather conditions in past years. The results will help you decide how hot, cold, wet, or windy it might be!

Date:

Astronomy

Jan. 31, 2013 Rise Set
Actual Time 7:11 AM PST 5:26 PM PST
Civil Twilight 6:43 AM PST 5:54 PM PST
Nautical Twilight 6:12 AM PST 6:26 PM PST
Astronomical Twilight 5:40 AM PST 6:57 PM PST
Moon 10:30 PM PST (1/31) 9:18 AM PST (1/31)
Length of Visible Light 11h 10m
Length of Day
10h 14m
Waning Gibbous, 79% of the Moon is Illuminated
Jan 31
Waning Gibbous
Feb 3
Last Quarter
Feb 9
New
Feb 17
First Quarter
Feb 25
Full

Hourly Weather History & Observations

Time (PST) Temp. Windchill Dew Point Humidity Pressure Visibility Wind Dir Wind Speed Gust Speed Precip Events Conditions
12:10 AM 42.8 °F 41.1 °F 39.2 °F 87% 30.32 in 10.0 mi ENE 3.5 mph - N/A   Clear
12:30 AM 44.6 °F - 39.2 °F 81% 30.32 in 10.0 mi Calm Calm - N/A   Clear
12:50 AM 42.8 °F 41.1 °F 39.2 °F 87% 30.31 in 10.0 mi ENE 3.5 mph - N/A   Clear
1:10 AM 42.8 °F 41.1 °F 39.2 °F 87% 30.31 in 10.0 mi East 3.5 mph - N/A   Clear
1:30 AM 42.8 °F 41.1 °F 39.2 °F 87% 30.31 in 10.0 mi NE 3.5 mph - N/A   Clear
1:50 AM 41.0 °F 39.0 °F 37.4 °F 87% 30.31 in 10.0 mi NE 3.5 mph - N/A   Clear
2:10 AM 44.6 °F 43.1 °F 39.2 °F 81% 30.31 in 10.0 mi ENE 3.5 mph - N/A   Clear
2:30 AM 41.0 °F 39.0 °F 39.2 °F 93% 30.30 in 10.0 mi NE 3.5 mph - N/A   Clear
2:50 AM 42.8 °F - 39.2 °F 87% 30.30 in 10.0 mi Calm Calm - N/A   Clear
3:10 AM 41.0 °F - 39.2 °F 93% 30.30 in 10.0 mi Calm Calm - N/A   Clear
3:30 AM 41.0 °F - 39.2 °F 93% 30.30 in 10.0 mi Calm Calm - N/A   Clear
3:50 AM 41.0 °F - 39.2 °F 93% 30.30 in 10.0 mi Calm Calm - N/A   Clear
4:10 AM 39.2 °F 35.9 °F 37.4 °F 93% 30.30 in 9.0 mi WSW 4.6 mph - N/A   Clear
4:30 AM 39.2 °F - 37.4 °F 93% 30.30 in 7.0 mi Calm Calm - N/A   Clear
4:50 AM 39.2 °F 37.0 °F 37.4 °F 93% 30.30 in 9.0 mi SSE 3.5 mph - N/A   Clear
5:10 AM 39.2 °F - 37.4 °F 93% 30.30 in 7.0 mi Calm Calm - N/A   Clear
5:30 AM 37.4 °F - 37.4 °F 100% 30.31 in 7.0 mi Calm Calm - N/A   Clear
5:50 AM 37.4 °F - 35.6 °F 93% 30.31 in 10.0 mi Calm Calm - N/A   Clear
6:10 AM 37.4 °F - 37.4 °F 100% 30.31 in 8.0 mi Calm Calm - N/A   Clear
6:30 AM 37.4 °F - 35.6 °F 93% 30.32 in 5.0 mi Calm Calm - N/A   Clear
6:50 AM 35.6 °F 32.8 °F 33.8 °F 93% 30.32 in 7.0 mi North 3.5 mph - N/A   Clear
7:10 AM 35.6 °F 32.8 °F 35.6 °F 100% 30.32 in 7.0 mi NE 3.5 mph - N/A   Clear
7:30 AM 37.4 °F 33.8 °F 37.4 °F 100% 30.33 in 7.0 mi NE 4.6 mph - N/A   Clear
7:50 AM 37.4 °F 33.8 °F 35.6 °F 93% 30.33 in 7.0 mi North 4.6 mph - N/A   Clear
8:10 AM - - - N/A% - 5.0 mi North - - N/A   Haze
8:30 AM 41.0 °F - 39.2 °F 93% 30.33 in 8.0 mi Calm Calm - N/A   Clear
8:50 AM 44.6 °F - 41.0 °F 87% 30.34 in 10.0 mi Calm Calm - N/A   Clear
9:10 AM 46.4 °F - 41.0 °F 81% 30.34 in 10.0 mi Calm Calm - N/A   Clear
9:30 AM 48.2 °F - 41.0 °F 76% 30.34 in 9.0 mi Calm Calm - N/A   Clear
9:50 AM 50.0 °F - 42.8 °F 76% 30.33 in 9.0 mi Calm Calm - N/A   Clear
10:10 AM 51.8 °F - 42.8 °F 71% 30.34 in 10.0 mi Calm Calm - N/A   Clear
10:30 AM 53.6 °F - 42.8 °F 67% 30.33 in 10.0 mi Calm Calm - N/A   Clear
10:50 AM 53.6 °F - 42.8 °F 67% 30.33 in 9.0 mi NNW 3.5 mph - N/A   Clear
11:10 AM 55.4 °F - 44.6 °F 67% 30.32 in 10.0 mi Calm Calm - N/A   Clear
11:30 AM 55.4 °F - 44.6 °F 67% 30.31 in 10.0 mi WNW 3.5 mph - N/A   Clear
11:50 AM 55.4 °F - 44.6 °F 67% 30.30 in 9.0 mi Calm Calm - N/A   Clear
12:10 PM 57.2 °F - 44.6 °F 63% 30.29 in 9.0 mi Calm Calm - N/A   Clear
12:30 PM 59.0 °F - 44.6 °F 59% 30.28 in 8.0 mi WNW 3.5 mph - N/A   Clear
12:50 PM 59.0 °F - 44.6 °F 59% 30.27 in 9.0 mi Calm Calm - N/A   Clear
1:10 PM 59.0 °F - 44.6 °F 59% 30.26 in 9.0 mi Calm Calm - N/A   Clear
1:30 PM 59.0 °F - 44.6 °F 59% 30.25 in 9.0 mi Calm Calm - N/A   Clear
1:50 PM 59.0 °F - 44.6 °F 59% 30.25 in 8.0 mi WNW 3.5 mph - N/A   Clear
2:10 PM 60.8 °F - 44.6 °F 55% 30.24 in 9.0 mi NNW 4.6 mph - N/A   Clear
2:30 PM 60.8 °F - 44.6 °F 55% 30.24 in 9.0 mi NW 6.9 mph - N/A   Clear
2:50 PM 60.8 °F - 44.6 °F 55% 30.24 in 9.0 mi NNW 4.6 mph - N/A   Clear
3:10 PM 60.8 °F - 44.6 °F 55% 30.24 in 9.0 mi NNW 5.8 mph - N/A   Clear
3:30 PM 60.8 °F - 44.6 °F 55% 30.23 in 10.0 mi NW 5.8 mph - N/A   Clear
3:50 PM 60.8 °F - 42.8 °F 52% 30.23 in 10.0 mi Calm Calm - N/A   Clear
4:10 PM 60.8 °F - 44.6 °F 55% 30.22 in 10.0 mi Calm Calm - N/A   Clear
4:30 PM 59.0 °F - 44.6 °F 59% 30.22 in 10.0 mi Calm Calm - N/A   Clear
4:50 PM 59.0 °F - 42.8 °F 55% 30.22 in 10.0 mi Calm Calm - N/A   Clear
5:10 PM 59.0 °F - 41.0 °F 51% 30.22 in 10.0 mi Calm Calm - N/A   Clear
5:30 PM 55.4 °F - 41.0 °F 58% 30.22 in 10.0 mi North 3.5 mph - N/A   Clear
5:50 PM 53.6 °F - 44.6 °F 72% 30.22 in 10.0 mi North 3.5 mph - N/A   Clear
6:10 PM 53.6 °F - 42.8 °F 67% 30.22 in 10.0 mi North 3.5 mph - N/A   Clear
6:30 PM 50.0 °F - 44.6 °F 82% 30.22 in 10.0 mi NNW 3.5 mph - N/A   Clear
6:50 PM 50.0 °F - 42.8 °F 76% 30.22 in 10.0 mi NNW 3.5 mph - N/A   Clear
7:10 PM 50.0 °F - 42.8 °F 76% 30.22 in 8.0 mi Calm Calm - N/A   Clear
7:30 PM 48.2 °F - 44.6 °F 87% 30.22 in 9.0 mi Calm Calm - N/A   Clear
7:50 PM 46.4 °F 45.2 °F 42.8 °F 87% 30.22 in 8.0 mi NNW 3.5 mph - N/A   Clear
8:10 PM 46.4 °F - 42.8 °F 87% 30.22 in 7.0 mi Calm Calm - N/A   Clear
8:30 PM 46.4 °F 45.2 °F 42.8 °F 87% 30.22 in 6.0 mi North 3.5 mph - N/A   Clear
8:50 PM 44.6 °F 41.4 °F 42.8 °F 93% 30.22 in 6.0 mi North 5.8 mph - N/A   Clear
9:10 PM 44.6 °F 40.7 °F 41.0 °F 87% 30.23 in 7.0 mi North 6.9 mph - N/A   Clear
9:30 PM 44.6 °F 40.7 °F 41.0 °F 87% 30.23 in 7.0 mi North 6.9 mph - N/A   Clear
9:50 PM 44.6 °F 41.4 °F 41.0 °F 87% 30.23 in 7.0 mi North 5.8 mph - N/A   Clear
10:10 PM 46.4 °F - 42.8 °F 87% 30.22 in 7.0 mi Calm Calm - N/A   Clear
10:30 PM 46.4 °F - 42.8 °F 87% 30.22 in 7.0 mi Calm Calm - N/A   Clear
10:50 PM 44.6 °F 43.1 °F 42.8 °F 93% 30.22 in 6.0 mi NW 3.5 mph - N/A   Clear
11:10 PM 44.6 °F - 41.0 °F 87% 30.23 in 5.0 mi Calm Calm - N/A   Clear
11:30 PM 42.8 °F - 41.0 °F 93% 30.23 in 5.0 mi Calm Calm - N/A   Clear
11:50 PM 42.8 °F 41.1 °F 41.0 °F 93% 30.23 in 5.0 mi NW 3.5 mph - N/A   Clear